Regional Weather Roundup
Issued by NWS

Home | Current Version | Previous Version | Text Only | Print | Product List | Glossary On
Versions: 1 2 3 4 5 6 7 8 9 10 11 12 13 14 15 16 17 18 19 20 21 22 23 24 25 26 27 28 29 30 31 32 33 34 35 36 37 38 39 40 41 42 43 44 45 46 47 48 49 50
000
ASUS43 KDTX 251510
RWRMI
MICHIGAN HOURLY REGIONAL WEATHER ROUNDUP
NATIONAL WEATHER SERVICE DETROIT/PONTIAC MI
1000 AM EST THU DEC 25 2014

NOTE: "FAIR" INDICATES FEW OR NO CLOUDS BELOW 12,000 FEET WITH NO
SIGNIFICANT WEATHER AND/OR OBSTRUCTION TO VISIBILITY.

MIZ047>049-052>055-059>063-066>070-074>076-081>083-251600-
SOUTHEAST LOWER MICHIGAN

CITY           SKY/WX    TMP DP  RH WIND       PRES   REMARKS
ADRIAN         CLOUDY    37  33  85 W14       29.91R WCI  28
ALMA           CLOUDY    36  31  83 W14       29.83R WCI  27
ANN ARBOR      CLOUDY    38  33  82 W13       29.87R WCI  30
BAD AXE        CLOUDY    35  33  92 W13       29.78R WCI  26
CARO           CLOUDY    36  32  86 SW13      29.80R WCI  27
DETROIT CITY   CLOUDY    40  33  76 W10       29.86R WCI  33
DETROIT        LGT RAIN  38  34  85 SW14      29.88R WCI  30
FLINT          CLOUDY    38  30  73 W16       29.84R WCI  29
GROSSE ILE     CLOUDY    39  34  81 SW10G17   29.87R WCI  32
HILLSDALE      CLOUDY    36  35  96 W9        29.88R WCI  29
HOWELL         CLOUDY    35  33  93 SW13      29.85R WCI  26

CITY           SKY/WX    TMP DP  RH WIND       PRES   REMARKS
JACKSON        CLOUDY    36  32  85 W9        29.87R WCI  29
LAMBERTVILLE   CLOUDY    37  32  81 SW14      29.91R WCI  29
LANSING        CLOUDY    37  29  72 W17       29.86R WCI  27
LAPEER         CLOUDY    36  31  83 W10G18    29.83R WCI  28
MASON          CLOUDY    35  31  87 W9        29.86R WCI  27
MONROE         DRIZZLE   37  36  93 SW14      29.88R WCI  29
MT. CLEMENS    CLOUDY    37  37 100 W10       29.84R WCI  30
PONTIAC        LGT RAIN  36  32  85 W15G23    29.83R WCI  27
PORT HOPE        N/A     36  30  79 W9G20     29.74R WCI  29
PORT HURON     CLOUDY    37  32  81 W8        29.84R WCI  31
TRI CITIES     CLOUDY    37  30  75 W15       29.81R WCI  28
TROY           CLOUDY    39  33  78 W14       29.87R WCI  31
SAGINAW HB     CLOUDY    36  32  87 W14G20    29.81R WCI  27
$$
MIZ043>046-050>051-056>058-064>065-071>073-077>080-251600-
SOUTHWEST LOWER MICHIGAN

CITY           SKY/WX    TMP DP  RH WIND       PRES   REMARKS
BATTLE CREEK   CLOUDY    37  29  72 W14       29.89R WCI  28
BENTON HARBOR  CLOUDY    35  30  82 SW17G23   29.92R WCI  25
BIG RAPIDS     CLOUDY    35  32  90 SW8       29.80R WCI  28
COLDWATER      CLOUDY    36  32  88 MISG      29.91R
FREMONT        CLOUDY    35  30  80 W9        29.83R WCI  28
HOLLAND        CLOUDY    38  30  73 SW20G25   29.89R WCI  28
GRAND RAPIDS   CLOUDY    36  29  75 W13       29.87R WCI  27
IONIA          CLOUDY    37  30  76 W14G25    29.84R WCI  28
KALAMAZOO      CLOUDY    36  29  75 W15       29.90R WCI  27
LUDINGTON      CLOUDY    37  28  70 W12G18    29.80R WCI  30
MARSHALL       CLOUDY    35  30  83 W10G20    29.88R WCI  27
MOUNT PLEASANT CLOUDY    36  31  82 CALM      29.80R
MUSKEGON       CLOUDY    38  29  70 W15G21    29.86R WCI  29
SOUTH HAVEN    CLOUDY    37  30  78 W15G23    29.91R WCI  27
$$
MIZ016>042-251600-
NORTHERN LOWER MICHIGAN

CITY           SKY/WX    TMP DP  RH WIND       PRES   REMARKS
ALPENA         CLOUDY    34  30  85 W7        29.69R WCI  28
BEAVER ISLAND  CLOUDY    35  31  83 W15       29.68R WCI  26
BELLAIRE       CLOUDY    37  31  80 SW9       29.72R WCI  30
CADILLAC       CLOUDY    32  29  89 SW10G16   29.74R WCI  24
CHARLEVOIX     CLOUDY    36  31  83 W17       29.72R WCI  25
FRANKFORT      MOSUNNY   37  31  81 W14G25    29.76R WCI  28
GAYLORD        CLOUDY    33  29  85 W13G20    29.67R WCI  24
GRAYLING       CLOUDY    33  30  90 W10G16    29.72R WCI  25
HARBOR SPRINGS CLOUDY    36  31  82 W14G20    29.69R WCI  27
HOUGHTON LAKE  CLOUDY    33  29  85 W10       29.73R WCI  25
MANISTEE       PTSUNNY   37  28  70 W17       29.78R WCI  28
OSCODA         CLOUDY    36  33  87 SW13      29.72R WCI  28
PELLSTON       CLOUDY    35  29  78 W15G23    29.68R WCI  25
ROGERS CITY    CLOUDY    35  32  88 W12G17    29.68R WCI  27
TRAVERSE CITY  MOSUNNY   37  30  75 W13       29.73R WCI  29
$$
MIZ007>008-015-251600-
EASTERN UPPER MICHIGAN

CITY           SKY/WX    TMP DP  RH WIND       PRES   REMARKS
KINROSS        CLOUDY    34  34 100 W12G17    29.61R WCI  25
MACKINAC ISLAN CLOUDY    35  32  89 W16G28    29.65R WCI  25
NEWBERRY       PTSUNNY   32  30  93 SW13G18   29.63R WCI  22
S. S. MARIE    FLURRIES  34  31  88 W13G24    29.58F WCI  25
MUNISING         N/A     36  28  73 VRB5      29.64R WCI  32
$$
MIZ004>006-011>014-085-251600-
CENTRAL UPPER MICHIGAN

CITY           SKY/WX    TMP DP  RH WIND       PRES   REMARKS
MANISTIQUE     CLOUDY    34  31  91 MISG      29.67R
ESCANABA       CLOUDY    34  27  75 W14       29.68R WCI  24
MENOMINEE      CLOUDY    34  28  80 SW8       29.72R WCI  27
SAWYER-GWINN   CLOUDY    32  28  86 W8        29.63R WCI  25
$$
MIZ001>003-009>011-084-251600-
WESTERN UPPER MICHIGAN

CITY           SKY/WX    TMP DP  RH WIND       PRES   REMARKS
IRON MOUNTAIN  CLOUDY    33  27  78 SW12      29.66R WCI  24
HOUGHTON       CLOUDY    32  29  88 W10       29.59R WCI  24
COPPER HARBOR    N/A     35  31  85 NW9       29.59R WCI  28
IRONWOOD       CLOUDY    30  28  93 SW12      29.59R WCI  21
$$

ABBREVIATIONS USED IN REMARKS
   TC - TEMPERATURE IN CELSIUS
  WCI - WIND CHILL INDEX
   HX - HEAT INDEX
  VSB - VISIBILITY



USA.gov is the U.S. government's official web portal to all federal, state and local government web resources and services.